Location: Saint-Restitut
(44.3351°N, 4.7915°E)
Time: 12:21:37
(UTC+00:00)

Cosmos 2263 Rocket - Pass Details

Date: 03 February 2023
Orbit: 825 x 847 km, 71.0° (Epoch: 19 March)

Event Time Altitude Azimuth Distance (km) Brightness Sun altitude
Rises 17:11:00 0° 332° (NNW) 3,373 5.5 -3.9°
Reaches altitude 10° 17:13:27 10° 330° (NNW) 2,434 4.8 -4.3°
Maximum altitude 17:18:58 67° 249° (WSW) 896 2.7 -5.2°
Drops below altitude 10° 17:24:27 10° 168° (SSE) 2,419 4.7 -6.2°
Sets 17:26:53 0° 165° (SSE) 3,350 5.3 -6.6°
